Date String (YYYY-MM-DD hh:mm:ss) UTC,Instrument flags,Ambient pressure (hPa),Sample flow (lpm),Bypass flow (lpm),Sample temperature (°C),Ambient temperature (°C),ASC tube jacket temperature (°C),LED temperature (°C),Box temperature (°C),Sample RH (%),Span deviation,Mass concentration (μg/m³),Mass concentration (μg/m³),Mass concentration (μg/m³)
DateTimeUTC,F1_M11,P_M11,Q1_M11,Q2_M11,T1_M11,T2_M11,T3_M11,T4_M11,T5_M11,U1_M11,ZSPAN_M11,X0_M11,X2_M11,X1_M11
2021-11-16 08:00:00,,0820.9,5.00,0.00,29.8,29.0,00.0,39.0,31.5,09.2,0000.0,0000.81,0000.33,0000.17
2021-11-16 08:01:00,,0820.8,5.00,0.00,29.8,29.0,00.0,38.9,31.5,09.2,0000.0,0000.78,0000.32,0000.17
2021-11-16 08:02:00,,0820.9,5.01,0.00,29.8,29.0,00.0,38.9,31.5,09.2,0000.0,0000.73,0000.29,0000.16
2021-11-16 08:03:00,,0820.9,5.00,0.00,29.8,29.0,00.0,38.9,31.5,09.2,0000.0,0000.73,0000.29,0000.16
2021-11-16 08:04:00,,0820.9,5.00,0.00,29.9,29.1,00.0,38.9,31.6,09.2,0000.0,0000.74,0000.29,0000.16
2021-11-16 08:05:00,,0820.9,4.99,0.00,29.9,29.1,00.0,38.9,31.6,09.2,0000.0,0000.71,0000.28,0000.16
2021-11-16 08:06:00,,0820.9,5.00,0.00,29.9,29.1,00.0,38.9,31.6,09.2,0000.0,0000.65,0000.25,0000.16
2021-11-16 08:07:00,,0820.8,5.00,0.00,29.9,29.1,00.0,38.9,31.5,09.1,0000.0,0000.64,0000.24,0000.16
2021-11-16 08:08:00,,0820.8,5.00,0.00,29.9,29.1,00.0,38.9,31.6,09.1,0000.0,0000.54,0000.22,0000.16
2021-11-16 08:09:00,,0820.9,5.00,0.00,29.9,29.1,00.0,38.9,31.6,09.2,0000.0,0000.38,0000.20,0000.15
2021-11-16 08:10:00,,0820.9,4.99,0.00,29.9,29.2,00.0,38.9,31.6,09.1,0000.0,0000.40,0000.22,0000.16
2021-11-16 08:11:00,,0820.9,5.00,0.00,29.9,29.2,00.0,38.9,31.6,09.2,0000.0,0000.43,0000.23,0000.16
2021-11-16 08:12:00,,0820.9,5.01,0.00,29.9,29.2,00.0,38.9,31.6,09.1,0000.0,0000.47,0000.26,0000.17
2021-11-16 08:13:00,,0820.8,4.99,0.00,29.9,29.2,00.0,38.9,31.7,09.1,0000.0,0000.45,0000.26,0000.17
2021-11-16 08:14:00,,0820.9,5.00,0.00,29.9,29.2,00.0,38.9,31.7,09.1,0000.0,0000.43,0000.25,0000.17
2021-11-16 08:15:00,,0820.8,5.00,0.00,29.9,29.2,00.0,39.0,31.7,09.1,0000.0,0000.44,0000.25,0000.17
2021-11-16 08:16:00,,0820.8,5.00,0.00,29.9,29.2,00.0,39.0,31.7,09.1,0000.0,0000.46,0000.26,0000.17
2021-11-16 08:17:00,,0820.8,5.01,0.00,29.9,29.1,00.0,39.0,31.6,09.1,0000.0,0000.40,0000.26,0000.17
2021-11-16 08:18:00,,0820.7,5.00,0.00,29.9,29.1,00.0,39.0,31.6,09.1,0000.0,0000.51,0000.29,0000.18
2021-11-16 08:19:00,,0820.7,5.00,0.00,29.9,29.1,00.0,39.0,31.6,09.1,0000.0,0000.68,0000.29,0000.18
2021-11-16 08:20:00,,0820.7,4.98,0.00,29.9,29.1,00.0,39.0,31.6,09.1,0000.0,0000.68,0000.29,0000.18
2021-11-16 08:21:00,,0820.7,5.00,0.00,29.9,29.1,00.0,38.9,31.6,09.1,0000.0,0000.70,0000.30,0000.19
2021-11-16 08:22:00,,0820.8,5.01,0.00,29.9,29.1,00.0,38.9,31.6,09.1,0000.0,0000.71,0000.31,0000.19
2021-11-16 08:23:00,,0820.7,4.99,0.00,29.9,29.2,00.0,39.0,31.6,09.1,0000.0,0000.66,0000.27,0000.19
2021-11-16 08:24:00,,0820.7,4.99,0.00,29.9,29.2,00.0,39.0,31.7,09.1,0000.0,0000.67,0000.28,0000.18
2021-11-16 08:25:00,,0820.7,5.01,0.00,30.0,29.2,00.0,39.0,31.7,09.1,0000.0,0000.67,0000.28,0000.18
2021-11-16 08:26:00,,0820.7,5.01,0.00,30.0,29.2,00.0,39.0,31.7,09.1,0000.0,0000.66,0000.28,0000.19
2021-11-16 08:27:00,,0820.8,5.01,0.00,30.0,29.2,00.0,39.0,31.7,09.1,0000.0,0000.63,0000.27,0000.19
2021-11-16 08:28:00,,0820.7,4.99,0.00,30.0,29.2,00.0,39.0,31.7,09.1,0000.0,0000.61,0000.27,0000.19
2021-11-16 08:29:00,,0820.7,4.99,0.00,30.0,29.3,00.0,39.0,31.7,09.0,0000.0,0000.54,0000.24,0000.19
2021-11-16 08:30:00,,0820.6,5.00,0.00,30.0,29.3,00.0,39.0,31.8,09.0,0000.0,0000.33,0000.24,0000.20
2021-11-16 08:31:00,,0820.7,5.00,0.00,30.0,29.3,00.0,39.0,31.8,09.0,0000.0,0000.34,0000.24,0000.19
2021-11-16 08:32:00,,0820.7,5.01,0.00,30.0,29.3,00.0,39.0,31.8,09.0,0000.0,0000.31,0000.22,0000.19
2021-11-16 08:33:00,,0820.7,5.00,0.00,30.0,29.3,00.0,39.0,31.7,09.0,0000.0,0000.45,0000.22,0000.19
2021-11-16 08:34:00,,0820.7,5.00,0.00,30.0,29.3,00.0,39.0,31.7,09.0,0000.0,0000.68,0000.24,0000.19
2021-11-16 08:35:00,,0820.7,5.00,0.00,30.0,29.3,00.0,39.0,31.7,09.0,0000.0,0000.66,0000.24,0000.19
2021-11-16 08:36:00,,0820.6,5.01,0.00,30.0,29.3,00.0,39.0,31.8,09.0,0000.0,0000.66,0000.24,0000.19
2021-11-16 08:37:00,,0820.6,5.00,0.00,30.0,29.3,00.0,39.0,31.8,08.9,0000.0,0000.67,0000.25,0000.20
2021-11-16 08:38:00,,0820.6,4.99,0.00,30.0,29.3,00.0,39.0,31.8,08.9,0000.0,0000.68,0000.25,0000.20
2021-11-16 08:39:00,,0820.6,5.01,0.00,30.0,29.3,00.0,39.0,31.8,08.9,0000.0,0000.69,0000.26,0000.20
2021-11-16 08:40:00,,0820.6,5.00,0.00,30.1,29.3,00.0,39.1,31.8,09.0,0000.0,0000.73,0000.27,0000.20
2021-11-16 08:41:00,,0820.6,5.00,0.00,30.1,29.3,00.0,39.1,31.8,09.0,0000.0,0000.77,0000.29,0000.20
2021-11-16 08:42:00,,0820.6,5.00,0.00,30.1,29.3,00.0,39.1,31.8,09.0,0000.0,0000.84,0000.31,0000.21
2021-11-16 08:43:00,,0820.6,5.00,0.00,30.1,29.3,00.0,39.1,31.8,09.0,0000.0,0000.86,0000.32,0000.21
2021-11-16 08:44:00,,0820.6,5.00,0.00,30.1,29.3,00.0,39.1,31.8,09.0,0000.0,0000.73,0000.31,0000.21
2021-11-16 08:45:00,,0820.6,5.00,0.00,30.1,29.3,00.0,39.1,31.8,09.0,0000.0,0000.48,0000.30,0000.21
2021-11-16 08:46:00,,0820.6,5.00,0.00,30.1,29.3,00.0,39.1,31.8,09.0,0000.0,0000.55,0000.31,0000.21
2021-11-16 08:47:00,,0820.6,5.00,0.00,30.1,29.3,00.0,39.1,31.8,09.0,0000.0,0000.58,0000.32,0000.21
2021-11-16 08:48:00,,0820.6,4.99,0.00,30.1,29.3,00.0,39.1,31.8,09.0,0000.0,0000.57,0000.32,0000.21
2021-11-16 08:49:00,,0820.7,5.01,0.00,30.1,29.3,00.0,39.1,31.8,09.0,0000.0,0000.59,0000.33,0000.20
2021-11-16 08:50:00,,0820.6,5.00,0.00,30.1,29.3,00.0,39.1,31.8,09.0,0000.0,0000.58,0000.33,0000.20
2021-11-16 08:51:00,,0820.6,5.00,0.00,30.1,29.3,00.0,39.1,31.9,09.0,0000.0,0000.54,0000.32,0000.20
2021-11-16 08:52:00,,0820.6,4.99,0.00,30.1,29.3,00.0,39.1,31.9,09.0,0000.0,0000.53,0000.31,0000.20
2021-11-16 08:53:00,,0820.7,5.01,0.00,30.1,29.4,00.0,39.1,31.9,09.0,0000.0,0000.52,0000.31,0000.21
2021-11-16 08:54:00,,0820.6,4.99,0.00,30.2,29.4,00.0,39.1,31.9,09.0,0000.0,0000.49,0000.30,0000.20
2021-11-16 08:55:00,,0820.6,4.99,0.00,30.1,29.4,00.0,39.1,31.9,09.0,0000.0,0000.50,0000.30,0000.21
2021-11-16 08:56:00,,0820.6,5.00,0.00,30.1,29.4,00.0,39.1,31.9,08.9,0000.0,0000.50,0000.30,0000.21
2021-11-16 08:57:00,,0820.6,4.99,0.00,30.1,29.3,00.0,39.1,31.9,08.9,0000.0,0000.43,0000.29,0000.21
2021-11-16 08:58:00,,0820.4,5.01,0.00,30.1,29.3,00.0,39.2,31.8,08.9,0000.0,0000.43,0000.29,0000.22
2021-11-16 08:59:00,,0820.4,5.01,0.00,30.1,29.3,00.0,39.1,31.8,09.0,0000.0,0000.48,0000.30,0000.22
